Pueblo, CO

6:56 AM MDT on June 24, 2017 (GMT -0600)
Pueblo Memorial

Weather History for KPUB - March, 2013

Change the Weather History Date:

Thursday, March 28, 2013

  Actual Average Record
Temperature  
Mean Temperature 50 °F 45 °F  
Max Temperature 70 °F 62 °F 84 °F (1963)
Min Temperature 30 °F 29 °F -6 °F (1899)
Degree Days  
Heating Degree Days 15 20  
Month to date heating degree days 698 644  
Since 1 July heating degree days 4935 4947  
Cooling Degree Days 0 0  
Month to date cooling degree days 0 0  
Year to date cooling degree days 0 0  
Moisture  
Dew Point 24 °F    
Average Humidity 43    
Maximum Humidity 72    
Minimum Humidity 14    
Precipitation  
Precipitation 0.00 in 0.04 in 0.42 in (1981)
Month to date precipitation 0.20 0.83  
Year to date precipitation 0.89 1.48  
Snow  
Snow 0.00 in 0.20 in 7.30 in (1972)
Month to date snowfall 5.7 5.1  
Since 1 July snowfall 20.4 26.9  
Snow Depth 0.00 in    
Sea Level Pressure  
Sea Level Pressure 30.04 in    
Wind  
Wind Speed 6 mph (ENE)    
Max Wind Speed 18 mph    
Max Gust Speed 21 mph    
Visibility 10 miles    
Events      
T = Trace of Precipitation, MM = Missing Value Source: NWS Daily Summary

Daily Weather History Graph

Daily Weather History Graph

Search for Another Location

Airport or City:

Trip Planner

Search our weather history database for the weather conditions in past years. The results will help you decide how hot, cold, wet, or windy it might be!

Date:

Astronomy

Mar. 28, 2013 Rise Set
Actual Time 6:48 AM MDT 7:17 PM MDT
Civil Twilight 6:22 AM MDT 7:44 PM MDT
Nautical Twilight 5:51 AM MDT 8:15 PM MDT
Astronomical Twilight 5:19 AM MDT 8:47 PM MDT
Moon 9:10 PM MDT (3/28) 7:19 AM MDT (3/28)
Length of Visible Light 13h 22m
Length of Day
12h 29m
Full, 98% of the Moon is Illuminated
Mar 28
Full
Apr 2
Last Quarter
Apr 10
New
Apr 18
First Quarter
Apr 25
Full

Hourly Weather History & Observations

Time (MDT) Temp. Windchill Dew Point Humidity Pressure Visibility Wind Dir Wind Speed Gust Speed Precip Events Conditions
12:53 AM 36.0 °F - 25.0 °F 64% 30.08 in 10.0 mi Calm Calm - N/A   Clear
1:53 AM 34.0 °F 28.0 °F 25.0 °F 70% 30.09 in 10.0 mi North 6.9 mph - N/A   Clear
2:53 AM 35.1 °F 29.3 °F 25.0 °F 67% 30.06 in 10.0 mi NNE 6.9 mph - N/A   Clear
3:53 AM 36.0 °F 28.0 °F 27.0 °F 70% 30.05 in 10.0 mi North 11.5 mph - N/A   Clear
4:53 AM 35.1 °F 28.6 °F 27.0 °F 72% 30.04 in 10.0 mi North 8.1 mph - N/A   Clear
5:53 AM 32.0 °F 26.4 °F 25.0 °F 75% 30.06 in 10.0 mi NW 5.8 mph - N/A   Clear
6:53 AM 32.0 °F - 24.1 °F 73% 30.07 in 10.0 mi Calm Calm - N/A   Clear
7:53 AM 35.1 °F - 26.1 °F 70% 30.09 in 10.0 mi Calm Calm - N/A   Clear
8:53 AM 37.9 °F 35.5 °F 27.0 °F 65% 30.09 in 10.0 mi West 3.5 mph - N/A   Clear
9:53 AM 42.1 °F 40.2 °F 28.0 °F 58% 30.09 in 10.0 mi West 3.5 mph - N/A   Clear
10:53 AM 46.0 °F - 28.0 °F 50% 30.09 in 10.0 mi Calm Calm - N/A   Clear
11:53 AM 51.1 °F - 27.0 °F 39% 30.06 in 10.0 mi Calm Calm - N/A   Clear
12:53 PM 57.9 °F - 26.1 °F 30% 30.03 in 10.0 mi Calm Calm - N/A   Clear
1:53 PM 64.0 °F - 23.0 °F 21% 29.99 in 10.0 mi ESE 5.8 mph - N/A   Clear
2:53 PM 66.9 °F - 21.9 °F 18% 29.95 in 9.0 mi East 4.6 mph - N/A   Clear
3:53 PM 68.0 °F - 17.1 °F 14% 29.93 in 10.0 mi SE 8.1 mph - N/A   Clear
4:53 PM 66.9 °F - 16.0 °F 14% 29.94 in 10.0 mi ESE 8.1 mph - N/A   Clear
5:53 PM 66.0 °F - 19.0 °F 17% 29.97 in 10.0 mi ESE 15.0 mph - N/A   Mostly Cloudy
6:53 PM 62.1 °F - 19.9 °F 20% 30.01 in 10.0 mi East 11.5 mph - N/A   Overcast
7:53 PM 57.9 °F - 21.0 °F 24% 30.03 in 10.0 mi ESE 6.9 mph - N/A   Scattered Clouds
8:53 PM 55.9 °F - 21.9 °F 27% 30.04 in 10.0 mi East 11.5 mph - N/A   Partly Cloudy
9:53 PM 54.0 °F - 21.0 °F 28% 30.05 in 10.0 mi ENE 5.8 mph - N/A   Clear
10:53 PM 48.0 °F - 23.0 °F 37% 30.06 in 10.0 mi NNE 8.1 mph - N/A   Clear
11:53 PM 44.1 °F - 23.0 °F 43% 30.06 in 10.0 mi Calm Calm - N/A   Clear